Location: Mountain Grove
(34.0887°N, 86.6172°W)
Time: 00:41:28
(UTC+00:00)

Cosmos 2074 Rocket - Pass Details

Date: 14 July 2020
Orbit: 967 x 986 km, 82.9° (Epoch: 12 August)

Event Time Altitude Azimuth Distance (km) Brightness Sun altitude
Exits shadow 02:34:53 20° 165° (SSE) 2,052 5.2 -17.1°
Maximum altitude 02:39:06 59° 92° (E) 1,112 4.0 -17.8°
Drops below altitude 10° 02:45:11 10° 15° (NNE) 2,714 6.7 -18.7°
Sets 02:47:43 0° 11° (NNE) 3,664 7.5 -19.1°
